Regional Weather Roundup
Issued by NWS Charleston, SC

Current Version | Previous Version | Text Only | Print | Product List | Glossary Off
Versions: 1 2 3 4 5 6 7 8 9 10 11 12 13 14 15 16 17 18 19 20 21 22 23 24 25 26 27 28 29 30 31 32 33 34 35 36 37 38 39 40 41 42 43 44 45 46 47 48 49 50

000
ASUS42 KCHS 222027
RWRCHS

REGIONAL WEATHER ROUNDUP
NATIONAL WEATHER SERVICE CHARLESTON SC
400 PM EDT WED MAR 22 2017

NOTE: "FAIR" INDICATES FEW OR NO CLOUDS BELOW 12,000 FEET WITH NO
SIGNIFICANT WEATHER AND/OR OBSTRUCTIONS TO VISIBILITY.

NOT ALL STATIONS ARE QUALITY CONTROLLED. USE DATA WITH CAUTION...
ESPECIALLY DEWPOINT OBSERVATIONS.

SCZ027-030-031-034>040-042>050-222100-
...SOUTHEAST SOUTH CAROLINA...

CITY           SKY/WX    TMP DP  RH WIND       PRES   REMARKS
N CHARLESTON   MOSUNNY   76  42  29 N17       30.08R
WATERFRONT PRK   N/A     66  56  70 E14       30.06S
JOHNS ISLAND   FAIR      68  54  60 E16G24    30.09R
PINOPOLIS        N/A     64  52  63 N7        30.01R
MONCKS CORNER  FAIR      70  41  35 N6        30.10S
SUMMERVILLE    FAIR      72  43  35 N13G18    30.11R
BEAUFORT MCAS  MOSUNNY   79  46  31 NE10      30.07S
BEAUFORT ARPT  FAIR      73  52  46 E9        30.08R
HILTON HEAD IS MOSUNNY   66  55  68 E5        30.09R
WALTERBORO     CLEAR     73  43  33 N8G20     30.11R
ALLENDALE      FAIR      75  45  33 N9        30.09R

...SOUTHERN MIDLANDS AND PEE DEE...

CITY           SKY/WX    TMP DP  RH WIND       PRES   REMARKS
GEORGETOWN     MOCLDY    68  52  56 E12       30.12R
KINGSTREE      FAIR      68  30  24 N12G18    30.13R
ORANGEBURG     MOSUNNY   73  42  32 E12       30.11S
BARNWELL       FAIR      75  46  35 N14G23    30.10S
AIKEN          FAIR      68  43  40 NE9       30.16S
MANNING        FAIR      70  37  30 N16G23    30.12R
COLUMBIA       CLOUDY    71  37  28 N12       30.12R
SUMTER         CLOUDY    68  30  24 N16       30.12R
FLORENCE       CLOUDY    67  20  16 N14G23    30.14R
MYRTLE BEACH   PTSUNNY   63  54  72 SE16      30.12R
N MYRTLE BEACH MOSUNNY   69  45  41 NE10      30.10R

$$

GAZ063-065-086>088-099>101-113>116-118-119-134>141-150-222100-
...SOUTHEAST GEORGIA...

CITY           SKY/WX    TMP DP  RH WIND       PRES   REMARKS
SAVANNAH ARPT  PTSUNNY   81  50  33 NE9       30.06S
HUNTER AAF     PTSUNNY   74  60  60 E13       30.04R
FORT STEWART   CLOUDY    80  56  43 N10G18    30.03S
STATESBORO     PTSUNNY   77  56  47 N9        30.06F
SYLVANIA       CLOUDY   N/A N/A N/A NE9       30.09S
CLAXTON        FAIR      78  57  49 N8        30.06S

...CSRA...CENTRAL AND FAR SOUTHEAST GEORGIA...

CITY           SKY/WX    TMP DP  RH WIND       PRES   REMARKS
THOMSON        CLOUDY    73  55  53 MISG      30.15F
AUGUSTA-BUSH   MOSUNNY   75  49  39 VRB7      30.09F
AUGUSTA-DANIEL CLOUDY    74  46  36 NE10      30.11S
SWAINSBORO     FAIR      77  54  44 N6        30.09R
VIDALIA        PTSUNNY   81  55  41 N9        30.06S
EASTMAN        MOCLDY    84  26  11 N9        30.07S
HAZLEHURST     FAIR      82  55  38 N8        30.03S
ALMA           MOSUNNY   85  53  33 N10G16    30.02F
WAYCROSS       SUNNY     88  57  34 NW9G17    30.02S
JESUP          MOCLDY    82  52  34 NE13      30.03S
BAXLEY         FAIR      82  61  47 NE8       30.03S
BRUNSWICK      SUNNY     73  63  68 E22       30.06R
SAINT SIMONS   SUNNY     70  59  68 E16G23    30.06R

$$

SCZ027-028-034-036>038-045-046-048>050-GAZ119-141-222100-
...LAKE AND SUPPLEMENTAL COASTAL OBSERVATIONS...

STATION/POSITION TIME  TEMP    WIND        PRES    WAVE   SWELL
                       AIR SEA DIR/SP/G            HT/PER HT/PER/DIR
                 (UTC) (F)     (DEG/KT/KT) (MB)    (FT/S) (FT/S/D)
WINYAH BAY       1930   61     100/ 14     1019.0R
LAKE MURRAY      2020   67     350/  4/  8 1020.3
ACE BASIN NERRS  1945   76      10/  4     1018.0S
FORT PULASKI     2000   64 61  100/ 15/ 18 1018.6
SAPELO ISLAND    2000   71      70/ 17     1018.0

$$

ANZ835-935-AMZ111-154-330-350-352-354-370-450-454-472-222100-
...C-MAN AND BUOY OBSERVATIONS...

STATION/POSITION TIME  TEMP    WIND        PRES    WAVE   SWELL
                       AIR SEA DIR/SP/G            HT/PER HT/PER/DIR
                 (UTC) (F)     (DEG/KT/KT) (MB)    (FT/S) (FT/S/D)
BUOY 41004       1950   63 66   40/ 23/ 27 1018.1R   4/ 5   2/130/11
BUOY 41008       1950   64 63   70/ 16/ 19 1017.7R   2/11   2/140/11
FOLLY BEACH CMAN 2000   62      80/ 16/ 18 1019.8R
CAPERS NEARSHORE 1908   61      80/ 16/ 21 1018.4R
FRIPP NEARSHORE  2008   62 60   90/ 10/ 14 1018.6R


STATION/POSITION TIME  TEMP    WIND        PRES    WAVE   SWELL
                       AIR SEA DIR/SP/G            HT/PER HT/PER/DIR
                 (UTC) (F)     (DEG/KT/KT) (MB)    (FT/S) (FT/S/D)
5E ST. MARYS GA  2000      65                N/A     2/12   2/ 90/12
FRYING PAN BUOY  2010   61 66   30/ 19/ 23 1019.8
BUOY 41025       1950   49 72   10/ 29/ 35 1021.0R  10/ 8   3/ 60/11
CAPE LOOKOUT NC  2000   53      40/ 25/ 28 1021.1R
BUOY 41002       1950   69 76  360/ 27/ 31 1014.4R   9/ 8   3/ 40/12
BUOY 41010       NOT AVBL
ST AUGUSTINE FL  2000   67 66   70/ 12/ 14 1017.3F


$$



USA.gov is the U.S. government's official web portal to all federal, state and local government web resources and services.